EN

Hourly Weather Alta Badia

Today, 18 January, Monday

Time Temperature Precipitation Wind Pressure Humidity
00:00 -12°C° 0 mm 2 mps 617 mmHg 87%
01:00 -12°C° 0 mm 2 mps 618 mmHg 86%
02:00 -12°C° 0 mm 2 mps 618 mmHg 86%
03:00 -12°C° 0 mm 2 mps 618 mmHg 86%
04:00 -12°C° 0 mm 2 mps 618 mmHg 86%
05:00 -12°C° 0 mm 2 mps 618 mmHg 85%
06:00 -12°C° 0 mm 2 mps 618 mmHg 85%
07:00 -13°C° 0 mm 2 mps 618 mmHg 85%
08:00 -10°C° 0 mm 2 mps 619 mmHg 84%
09:00 -8°C° 0 mm 1 mps 620 mmHg 83%
10:00 -7°C° 0 mm 1 mps 621 mmHg 82%
11:00 -6°C° 0 mm 1 mps 621 mmHg 78%
12:00 -4°C° 0 mm 1 mps 621 mmHg 75%
13:00 -3°C° 0 mm 1 mps 621 mmHg 71%
14:00 -4°C° 0 mm 1 mps 621 mmHg 75%
15:00 -4°C° 0 mm 1 mps 621 mmHg 79%
16:00 -6°C° 0 mm 1 mps 621 mmHg 83%
17:00 -8°C° 0 mm 1 mps 620 mmHg 84%
18:00 -9°C° 0 mm 1 mps 620 mmHg 84%
19:00 -11°C° 0 mm 1 mps 620 mmHg 84%
20:00 -11°C° 0 mm 1 mps 620 mmHg 83%
21:00 -12°C° 0 mm 1 mps 619 mmHg 82%
22:00 -12°C° 0 mm 1 mps 619 mmHg 81%
23:00 -12°C° 0 mm 1 mps 619 mmHg 78%

Tomorrow, 19 January, Tuesday

Time Temperature Precipitation Wind Pressure Humidity
00:00 -12°C° 0 mm 1 mps 619 mmHg 75%
01:00 -12°C° 0 mm 1 mps 619 mmHg 72%
02:00 -12°C° 0 mm 1 mps 619 mmHg 71%
03:00 -12°C° 0 mm 1 mps 619 mmHg 70%
04:00 -12°C° 0 mm 1 mps 618 mmHg 68%
05:00 -12°C° 0 mm 1 mps 618 mmHg 67%
06:00 -12°C° 0 mm 1 mps 618 mmHg 66%
07:00 -12°C° 0 mm 1 mps 618 mmHg 66%
08:00 -10°C° 0 mm 1 mps 619 mmHg 67%
09:00 -9°C° 0 mm 0 mps 619 mmHg 67%
10:00 -7°C° 0 mm 0 mps 620 mmHg 68%
11:00 -6°C° 0 mm 0 mps 620 mmHg 68%
12:00 -3°C° 0 mm 1 mps 620 mmHg 68%
13:00 -2°C° 0 mm 1 mps 620 mmHg 68%
14:00 -3°C° 0 mm 1 mps 619 mmHg 74%
15:00 -4°C° 0 mm 1 mps 619 mmHg 79%
16:00 -5°C° 0 mm 0 mps 618 mmHg 85%
17:00 -7°C° 0 mm 0 mps 618 mmHg 81%
18:00 -8°C° 0 mm 1 mps 617 mmHg 78%
19:00 -9°C° 0 mm 1 mps 617 mmHg 75%
20:00 -9°C° 0 mm 1 mps 617 mmHg 73%
21:00 -10°C° 0 mm 0 mps 617 mmHg 72%
22:00 -10°C° 0 mm 0 mps 617 mmHg 70%
23:00 -10°C° 0 mm 0 mps 617 mmHg 71%

Day after tomorrow, 20 January, Wednesday

Time Temperature Precipitation Wind Pressure Humidity
00:00 -10°C° 0 mm 0 mps 617 mmHg 72%
01:00 -10°C° 0 mm 1 mps 616 mmHg 72%
02:00 -11°C° 0 mm 1 mps 616 mmHg 73%
03:00 -11°C° 0 mm 1 mps 616 mmHg 74%
04:00 -11°C° 0 mm 1 mps 615 mmHg 75%
05:00 -11°C° 0 mm 1 mps 615 mmHg 75%
06:00 -11°C° 0 mm 1 mps 615 mmHg 76%
07:00 -11°C° 0 mm 1 mps 615 mmHg 76%
08:00 -10°C° 0 mm 1 mps 616 mmHg 77%
09:00 -8°C° 0 mm 0 mps 616 mmHg 78%
10:00 -7°C° 0 mm 0 mps 617 mmHg 79%
11:00 -4°C° 0 mm 1 mps 617 mmHg 80%
12:00 -3°C° 0 mm 1 mps 617 mmHg 80%
13:00 -2°C° 0 mm 1 mps 617 mmHg 81%
14:00 -3°C° 0 mm 1 mps 616 mmHg 85%
15:00 -3°C° 0 mm 1 mps 616 mmHg 90%
16:00 -4°C° 0 mm 1 mps 615 mmHg 94%
17:00 -4°C° 0 mm 1 mps 615 mmHg 95%
18:00 -6°C° 0 mm 1 mps 615 mmHg 95%
19:00 -7°C° 0 mm 1 mps 615 mmHg 96%
20:00 -7°C° 0 mm 1 mps 615 mmHg 96%
21:00 -7°C° 0 mm 1 mps 614 mmHg 96%
22:00 -7°C° 0 mm 1 mps 614 mmHg 96%
23:00 -7°C° 0.1 mm 1 mps 614 mmHg 96%

21 January, Thursday

Time Temperature Precipitation Wind Pressure Humidity
00:00 -7°C° 0.1 mm 1 mps 614 mmHg 96%
01:00 -7°C° 0.1 mm 1 mps 613 mmHg 96%
02:00 -7°C° 0.1 mm 1 mps 613 mmHg 97%
03:00 -7°C° 0.1 mm 1 mps 613 mmHg 97%
04:00 -7°C° 0.1 mm 1 mps 612 mmHg 97%
05:00 -7°C° 0.1 mm 1 mps 612 mmHg 96%
06:00 -7°C° 0.1 mm 1 mps 612 mmHg 96%
07:00 -7°C° 0.1 mm 1 mps 612 mmHg 95%
08:00 -6°C° 0.1 mm 1 mps 613 mmHg 95%
09:00 -4°C° 0.1 mm 1 mps 613 mmHg 94%
10:00 -3°C° 0.1 mm 1 mps 613 mmHg 94%
11:00 -2°C° 0.1 mm 1 mps 613 mmHg 94%
12:00 -1°C° 0.1 mm 1 mps 613 mmHg 95%
13:00 0°C° 0.1 mm 1 mps 613 mmHg 95%
14:00 0°C° 0.1 mm 1 mps 613 mmHg 96%
15:00 -1°C° 0.1 mm 1 mps 613 mmHg 96%
16:00 -1°C° 0.1 mm 1 mps 612 mmHg 97%
17:00 -1°C° 0.1 mm 1 mps 612 mmHg 97%
18:00 -2°C° 0.1 mm 1 mps 612 mmHg 97%
19:00 -3°C° 0.1 mm 1 mps 612 mmHg 97%
20:00 -3°C° 0.1 mm 1 mps 612 mmHg 97%
21:00 -3°C° 0.1 mm 1 mps 612 mmHg 97%
22:00 -3°C° 0.1 mm 1 mps 611 mmHg 96%
23:00 -3°C° 0.2 mm 1 mps 611 mmHg 96%

22 January, Friday

Time Temperature Precipitation Wind Pressure Humidity
00:00 -3°C° 0.2 mm 1 mps 611 mmHg 96%
01:00 -3°C° 0.2 mm 1 mps 610 mmHg 96%
02:00 -3°C° 0.7 mm 1 mps 610 mmHg 96%
03:00 -2°C° 0.7 mm 1 mps 609 mmHg 97%
04:00 -2°C° 0.7 mm 1 mps 608 mmHg 97%
05:00 -2°C° 0.9 mm 1 mps 608 mmHg 97%
06:00 -2°C° 0.9 mm 1 mps 608 mmHg 97%
07:00 -2°C° 0.9 mm 1 mps 608 mmHg 98%
08:00 -1°C° 0.5 mm 1 mps 608 mmHg 97%
09:00 -1°C° 0.5 mm 1 mps 608 mmHg 97%
10:00 0°C° 0.5 mm 1 mps 608 mmHg 97%
11:00 0°C° 0.6 mm 1 mps 608 mmHg 98%
12:00 0°C° 0.6 mm 0 mps 608 mmHg 98%
13:00 0°C° 0.6 mm 0 mps 608 mmHg 99%
14:00 0°C° 0.3 mm 0 mps 608 mmHg 98%
15:00 0°C° 0.3 mm 0 mps 608 mmHg 98%
16:00 -1°C° 0.3 mm 0 mps 608 mmHg 97%
17:00 0°C° 0.2 mm 1 mps 608 mmHg 97%
18:00 -1°C° 0.2 mm 1 mps 608 mmHg 96%
19:00 -2°C° 0.2 mm 1 mps 608 mmHg 95%
20:00 -2°C° 0.1 mm 1 mps 608 mmHg 95%
21:00 -3°C° 0.1 mm 1 mps 608 mmHg 95%
22:00 -3°C° 0.1 mm 1 mps 608 mmHg 94%
23:00 -5°C° 0.5 mm 2 mps 608 mmHg 94%

23 January, Saturday

Time Temperature Precipitation Wind Pressure Humidity
00:00 -6°C° 0.5 mm 2 mps 608 mmHg 94%
01:00 -6°C° 0.5 mm 2 mps 608 mmHg 94%
02:00 -6°C° 0.4 mm 2 mps 608 mmHg 93%
03:00 -7°C° 0.4 mm 2 mps 608 mmHg 93%
04:00 -9°C° 0.4 mm 3 mps 608 mmHg 92%
05:00 -8°C° 0.2 mm 2 mps 608 mmHg 92%
06:00 -8°C° 0.2 mm 2 mps 608 mmHg 91%
07:00 -8°C° 0.2 mm 2 mps 608 mmHg 90%
08:00 -8°C° 0.1 mm 2 mps 608 mmHg 89%
09:00 -7°C° 0.1 mm 2 mps 609 mmHg 88%
10:00 -7°C° 0.1 mm 2 mps 609 mmHg 87%
11:00 -6°C° 0.2 mm 2 mps 609 mmHg 85%
12:00 -6°C° 0.2 mm 2 mps 610 mmHg 83%
13:00 -5°C° 0.2 mm 2 mps 610 mmHg 81%
14:00 -5°C° 0 mm 2 mps 610 mmHg 83%
15:00 -4°C° 0 mm 1 mps 610 mmHg 85%
16:00 -4°C° 0 mm 1 mps 610 mmHg 86%
17:00 -7°C° 0 mm 1 mps 610 mmHg 86%
18:00 -9°C° 0 mm 1 mps 609 mmHg 86%
19:00 -10°C° 0 mm 1 mps 609 mmHg 86%
20:00 -11°C° 0 mm 1 mps 609 mmHg 85%
21:00 -11°C° 0 mm 1 mps 609 mmHg 83%
22:00 -12°C° 0 mm 1 mps 609 mmHg 81%
23:00 -12°C° 0 mm 1 mps 608 mmHg 79%
Show more